Flag for Germany Weather past 2 weeks in Wismar, Mecklenburg-Western Pomerania, Germany

Now
62 °F

Overcast.


Feels Like: 62 °F
Forecast: 58 / 73 °F
Wind: 2 mph from East

Location: Schwerin

Current Time: Aug 31, 2015 at 4:54:29 AM

Latest Report: Aug 31, 2015 at 4:00 AM


Visibility: 9 mi

Pressure: 29.98 "Hg

Humidity: 88%

Dew point: 59 °F

Location of WismarLocation

Historic Weather in Wismar — Graph

°F

Wismar temperature yesterday

Maximum temperature yesterday: 72 °F (at 6:00 PM)
Minimum temperature yesterday: 57 °F (at 4:00 AM)
Average temperature yesterday: 63 °F

Past Weeks' High & Low Weather Summary

 TemperatureHumidityPressure
High76 °F (Aug 17, 4:00 PM)100% (Aug 16, 6:00 AM)30.26 "Hg (Aug 16, 6:00 AM)
Low52 °F (Aug 29, 6:00 AM)43% (Aug 29, 4:00 PM)29.78 "Hg (Aug 27, 7:00 AM)
Average65 °F80%29.97 "Hg
* Reported Aug 16 3:00 AM — Aug 31 3:00 AM, Wismar, Weather by CustomWeather, © 2015

Note: Actual official high and low records may vary slightly from our data, if they occured in-between our weather recording intervals... More about our weather records

Advertising

Wismar weather history for previous 24 hours

 ConditionsComfort  
Time TempWeatherWind HumidityBarometerVisibility
3:00 AM
Mon, Aug 31
63 °FOvercast.2 mph89%29.99 "Hg8 mi
2:00 AM64 °FPassing clouds.2 mph88%30.00 "Hg7 mi
1:00 AM64 °FOvercast.3 mph91%30.01 "Hg7 mi
11:00 PM
Sun, Aug 30
66 °FOvercast.3 mph90%30.03 "Hg7 mi
10:00 PM67 °FPassing clouds.3 mph91%30.03 "Hg8 mi
9:00 PM67 °FPassing clouds.2 mph91%30.04 "Hg9 mi
8:00 PM69 °FScattered clouds.2 mph88%30.04 "Hg11 mi
7:00 PM71 °FPartly sunny.3 mph81%30.04 "Hg14 mi
6:00 PM72 °FPartly sunny.3 mph78%30.05 "Hg12 mi
4:00 PM69 °FPartly sunny.2 mph80%30.08 "Hg7 mi
3:00 PM67 °FPartly sunny.2 mph86%30.09 "Hg5 mi
2:00 PM65 °FLight rain. Partly sunny.1 mph95%30.10 "Hg2 mi
1:00 PM65 °FOvercast.1 mph87%30.12 "Hg7 mi
12:00 PM65 °FPartly sunny.2 mph82%30.11 "Hg7 mi
11:00 AM60 °FLight rain. Overcast.1 mph93%30.11 "Hg3 mi
10:00 AM60 °FDrizzle. Overcast.2 mph91%30.13 "Hg4 mi
9:00 AM63 °FOvercast.1 mph72%30.14 "Hg14 mi
8:00 AM60 °FOvercast.1 mph82%30.14 "Hg15 mi
7:00 AM58 °FOvercast.2 mph86%30.14 "Hg13 mi
4:00 AM57 °FPassing clouds.2 mph89%30.15 "Hg11 mi
Weather by CustomWeather, © 2015

See weather overviewHow to use our weather pages